SCP
0 0 -0 -0 -0 0 0 0 0 0 0 0 0 0 -0 0 0 0 0 -0 -0 -0 -0 0 -0 -0 -0 -0 -0 -0 -0 -0 -0 -0 -0 -0 -0 -0 -0 -0 -0 -0 -0 -0 -0 -0 -0 -0 -0
0 0 -0 0 0 0 -0 0 0 0 0 0 0 0 0 0 0 0 -0 -0 -0 -0 -0 -0 -0 -0 -0 -0 -0 -0 -0 -0 -0 -0 -0 -0 -0 -0 -0 -0 -0 -0 -0 -0 -0 -0 -0 -0 -0
0 0 0 0 -0 -0 -0 0 0 0 -0 0 0 0 0 0 0 0 -0 -0 -0 -0 -0 -0 -0 -0 -0 -0 -0 -0 -0 -0 -0 -0 -0 -0 -0 -0 -0 -0 -0 -0 -0 -0 -0 -0 -0 -0 -0
0 0 0 -0 0 -0 0 -0 -0 -0 0 0 0 0 0 -0 -0 -0 0 -0 -0 -0 -0 -0 -0 -0 -0 -0 -0 -0 -0 -0 -0 -0 -0 -0 -0 -0 -0 -0 -0 -0 -0 -0 -0 -0 -0 -0 -0
0 0 0 0 0 0 -0 0 -0 -0 0 0 0 0 0 0 -0 -0 0 -0 -0 -0 -0 -0 -0 -0 -0 -0 -0 -0 -0 -0 -0 -0 -0 -0 -0 -0 -0 -0 -0 -0 -0 0 0 -0 -0 -0 -0
0 0 0 0 0 0 0 0 0 0 0 0 0 0 0 0 0 0 0 -0 0 0 -0 -0 -0 -0 -0 -0 -0 -0 -0 -0 -0 -0 -0 -0 -0 -0 -0 -0 -0 -0 -0 -0 -0 0 0 0 0
0 0 0 0 0 0 0 0 0 0 0 0 0 0 0 0 0 0 0 0 0 0 0 0 0 -0 -0 -0 -0 -0 -0 -0 -0 -0 -0 -0 -0 -0 -0 -0 -0 -0 -0 -0 -0 -0 -0 -0 0
0 0 0 0 0 0 0 0 0 0 0 0 0 0 0 0 0 0 0 0 0 0 0 0 0 0 0 0 0 0 0 -0 -0 -0 -0 0 0 0 0 0 0 0 -0 -0 -0 -0 0 0 0
0 0 0 0 0 0 0 0 0 0 0 0 0 0 0 0 0 0 0 0 0 0 0 0 0 0 0 0 0 0 0 -0 0 0 0 0 0 0 0 0 0 0 0 0 0 0 0 0 0
0 0 0 0 0 0 0 0 0 0 0 0 0 0 0 0 0 0 0 0 0 0 0 0 0 0 0 0 0 0 0 0 0 0 0 0 0 0 0 0 0 -0 0 0 0 0 0 0 0
0 0 0 0 0 0 0 0 0 0 0 0 0 0 0 0 0 0 0 0 0 0 0 0 0 0 0 0 0 0 0 0 0 0 0 0 0 0 0 0 0 0 0 0 0 0 0 0 0
0 0 0 0 0 0 0 0 0 0 0 0 0 0 0 0 0 0 0 0 0 0 0 0 0 0 0 0 0 0 0 0 0 0 0 0 0 0 0 0 0 0 0 0 0 0 0 0 0
0 0 0 0 0 0 0 0 0 0 0 0 0 0 0 0 0 0 0 0 0 0 0 0 0 0 0 0 0 0 0 0 0 0 0 0 0 0 0 0 0 0 0 0 0 0 0 0 0
0 0 0 0 0 0 0 0 0 0 0 0 0 0 0 0 0 0 0 0 0 0 0 0 0 0 0 0 0 0 0 0 0 0 0 0 0 0 0 0 0 0 0 0 0 0 0 0 0
0 0 0 0 0 0 0 0 0 0 0 0 0 0 0 0 0 0 0 0 0 0 0 0 0 0 0 0 0 0 0 0 0 0 0 0 0 0 0 0 0 0 0 0 0 0 0 0 0
0 0 0 0 0 0 0 0 0 0 0 0 0 0 0 0 0 0 0 0 0 0 0 0 0 0 0 0 0 0 0 0 0 0 0 0 0 0 0 0 0 0 0 0 0 0 0 0 0
0 0 0 0 0 0 0 0 0 0 0 0 0 0 0 0 0 0 0 0 0 0 0 0 0 0 0 0 0 0 0 0 0 0 0 0 0 0 0 0 0 0 0 0 0 0 0 0 0
0 0 0 0 0 0 0 0 0 0 0 0 0 0 0 0 0 0 0 0 0 0 0 0 0 0 0 0 0 0 0 0 0 0 0 0 0 0 0 0 0 0 0 0 0 0 0 0 0
0 0 0 0 0 0 0 0 0 0 0 0 0 0 0 0 0 0 0 0 0 0 0 0 0 0 0 0 0 0 0 0 0 0 0 0 0 0 0 0 0 0 0 0 0 0 0 0 0
0 0 0 0 0 0 0 0 0 0 0 0 0 0 0 0 0 0 0 0 0 0 0 0 0 0 0 0 0 0 0 0 0 0 0 0 0 0 0 0 0 0 0 0 0 0 0 0 0
0 0 0 0 0 0 0 -0 0 0 0 0 0 0 0 0 0 0 0 0 0 0 0 0 0 0 0 0 0 0 0 0 0 0 0 0 0 0 0 0 0 0 0 0 0 0 0 0 0
0 0 0 0 0 0 0 -0 0 0 0 0 0 0 0 0 0 0 0 0 0 0 0 0 0 0 0 0 0 0 0 0 0 0 0 0 0 0 0 0 0 0 0 0 0 0 0 0 0
0 0 0 0 0 0 0 0 0 0 0 0 0 0 0 0 0 0 0 0 0 0 0 0 0 0 0 0 0 0 0 0 0 0 0 0 0 0 0 0 0 0 0 0 0 0 0 0 0
0 0 0 0 0 0 0 0 -0 0 0 0 0 0 0 0 0 0 0 0 0 0 0 0 0 0 0 0 0 0 0 0 0 0 0 0 0 0 0 0 0 0 0 0 0 0 0 0 0
0 0 0 0 0 0 0 0 0 0 0 0 0 0 0 0 0 0 0 0 0 0 0 0 0 0 0 0 0 0 0 0 0 0 0 0 0 0 0 0 0 0 0 0 0 0 0 0 0
0 0 0 0 0 0 0 0 0 0 0 0 0 0 0 0 0 0 0 0 0 0 0 0 0 0 0 0 0 0 0 0 0 0 0 0 0 0 0 0 0 0 0 0 0 0 0 0 0
0 0 0 0 0 0 0 0 0 0 0 0 0 0 0 0 0 0 0 0 0 0 0 0 0 0 0 0 0 0 0 0 0 0 0 0 0 0 0 0 0 0 0 0 0 0 0 0 0
0 0 0 0 0 0 0 0 0 0 0 0 -0 0 0 0 0 0 0 0 0 0 0 0 0 0 0 0 0 0 0 0 0 0 0 0 0 0 0 0 0 0 0 0 0 0 0 0 0
0 0 0 0 0 0 0 0 0 0 0 0 0 0 0 0 0 0 0 0 0 0 0 0 0 0 0 0 0 0 0 0 0 0 0 0 0 0 0 0 0 0 0 0 0 0 0 0 0
0 0 0 0 0 0 0 0 0 0 0 0 0 0 0 0 0 0 0 0 0 0 0 0 0 0 0 0 0 0 0 0 0 0 0 0 0 0 0 0 0 0 0 0 0 0 0 0 0
Wind_Speed_500mb
8 7 6 5 7 10 2 6 4 5 4 9 18 16 17 11 4 5 30 20 21 27 34 32 29 26 22 19 19 19 20 16 13 15 19 23 26 26 21 20 21 21 20 21 20 21 21 17 17
6 6 6 4 9 6 8 6 11 6 22 30 23 15 12 4 5 17 22 16 19 29 34 32 30 26 22 19 18 17 16 13 10 13 17 23 25 28 26 23 23 23 23 23 22 19 15 12 12
9 7 4 9 7 9 8 8 8 12 35 5 10 15 7 5 16 14 13 23 29 34 32 31 29 26 24 21 19 17 14 14 8 12 15 19 23 26 26 25 24 24 24 25 23 20 16 14 11
7 4 9 8 3 6 8 11 10 16 8 7 23 13 8 7 10 12 18 26 31 29 32 30 28 25 23 21 19 17 15 16 12 10 10 14 17 21 24 25 25 25 26 25 23 22 19 14 11
6 5 8 6 5 5 5 13 23 8 9 13 10 9 7 12 15 17 23 29 31 31 32 31 27 22 19 22 20 18 14 15 14 11 7 11 15 19 21 23 24 24 23 24 23 21 17 14 10
6 6 8 4 6 4 4 15 11 10 11 17 14 17 10 20 22 22 26 31 24 33 31 25 29 19 16 22 22 19 16 16 16 13 7 8 12 15 18 20 21 22 22 21 21 21 18 15 12
11 8 10 8 8 3 8 16 12 13 13 6 24 12 17 27 28 27 28 32 25 28 30 24 23 28 24 20 23 21 18 18 18 16 9 7 9 13 17 19 20 20 19 19 21 19 16 14 12
7 11 7 5 11 9 8 11 11 19 6 23 14 12 13 39 35 34 32 37 35 33 32 28 28 29 29 26 25 23 21 20 20 20 16 10 10 12 17 18 22 23 22 20 21 23 21 14 11
7 9 4 8 11 9 11 7 10 12 22 17 18 12 13 47 41 39 37 44 44 43 40 38 38 34 32 30 27 23 22 21 22 24 19 10 10 7 9 12 19 22 27 28 22 23 25 23 17
8 8 16 9 8 7 10 8 19 12 14 9 15 20 33 51 47 46 46 48 49 48 48 43 37 37 37 34 31 28 26 27 27 28 23 17 12 8 4 7 13 23 24 25 21 23 25 24 21
5 9 10 7 5 4 9 6 14 11 7 24 33 35 49 54 53 50 48 45 46 48 49 46 40 43 39 39 35 35 31 29 30 29 26 22 18 15 12 11 12 7 15 20 17 16 19 20 21
3 2 5 6 7 6 7 5 8 25 19 18 27 39 52 56 57 56 55 54 50 48 47 48 43 46 39 37 37 38 35 36 36 32 30 27 25 22 21 19 15 10 5 14 14 11 17 18 22
3 3 5 7 13 13 10 17 18 23 36 23 28 45 50 56 55 54 52 52 51 50 49 49 48 50 47 40 44 40 40 40 38 35 34 33 31 28 31 27 20 12 8 11 9 14 16 21 14
2 4 10 10 16 12 10 10 12 22 37 32 34 48 52 54 57 59 60 57 54 52 53 56 55 55 52 48 46 49 48 43 41 39 39 35 36 35 43 34 23 17 12 5 11 12 14 9 13
2 7 12 16 12 12 15 15 20 37 31 40 43 46 51 53 55 58 53 54 55 55 56 57 60 62 57 53 50 54 48 47 45 46 43 44 44 41 34 31 23 15 15 5 11 8 5 8 15
5 9 4 7 11 6 17 21 12 24 40 48 51 53 54 57 60 55 55 55 54 53 54 55 57 62 59 57 56 56 54 52 52 51 48 49 48 50 46 33 24 17 15 8 6 2 8 13 16
10 7 10 16 17 6 7 17 5 11 37 53 58 61 62 60 60 61 59 55 53 50 48 48 49 54 58 52 54 53 51 53 54 57 54 53 53 52 32 22 16 20 18 10 6 13 14 18 23
12 9 9 11 4 7 11 25 18 20 28 52 55 63 66 70 73 64 60 57 56 53 50 49 48 52 54 53 54 54 53 46 45 56 57 51 47 37 26 19 23 27 17 14 16 18 21 22 22
8 7 10 8 6 5 16 21 36 36 41 48 58 62 77 82 74 65 61 58 56 55 53 50 47 49 56 57 60 63 63 53 51 43 45 46 39 33 28 27 30 23 20 22 23 21 22 23 19
5 8 13 13 10 12 21 32 22 26 28 57 78 82 86 84 83 73 69 64 59 55 53 51 48 49 53 53 59 59 59 68 50 51 47 42 45 35 35 33 31 28 27 29 28 22 23 23 19
11 14 9 14 12 9 13 25 17 20 48 68 79 93 85 91 88 80 77 72 64 62 58 54 51 49 53 59 59 59 70 64 60 61 53 48 44 43 37 35 33 33 29 27 26 22 19 19 22
12 17 14 10 2 10 6 29 14 15 23 17 63 86 69 76 75 77 82 78 73 65 57 53 53 55 57 59 65 65 67 65 65 60 53 54 48 44 42 38 36 32 27 22 19 18 16 16 16
13 11 13 5 6 7 3 7 3 6 10 22 43 58 62 66 74 79 83 85 73 64 60 56 55 56 55 59 63 78 71 68 69 68 63 52 49 47 44 41 37 30 24 20 17 17 15 14 15
12 11 11 8 4 11 21 15 58 4 11 12 11 25 34 45 57 65 71 82 74 67 61 58 56 60 59 71 75 78 77 65 77 72 68 64 59 56 49 42 35 29 25 21 19 17 16 16 16
8 12 3 6 2 16 7 13 35 19 21 12 18 44 40 40 50 58 67 80 79 72 64 59 60 64 65 77 77 80 72 83 80 76 72 71 68 62 52 42 35 29 24 21 18 16 15 18 18
14 15 11 14 9 9 5 16 12 13 27 27 29 27 25 30 43 52 60 76 79 71 65 61 64 66 70 76 77 79 80 79 80 78 75 71 67 60 50 42 34 30 26 22 19 17 17 19 21
11 11 8 9 4 3 10 15 17 19 20 39 16 22 20 27 40 48 56 70 73 69 64 62 67 71 74 75 74 73 74 77 77 71 71 68 63 57 50 41 34 29 26 23 20 17 17 20 22
12 12 8 5 7 12 11 12 18 17 18 14 12 23 22 26 35 43 54 67 67 62 58 62 64 69 71 73 74 75 76 79 74 76 73 68 62 55 48 42 36 32 29 25 21 16 16 17 19
7 7 4 9 9 8 6 13 14 12 5 14 18 19 24 27 33 41 53 60 60 60 62 63 68 71 72 71 71 74 75 76 80 79 74 66 57 51 45 39 34 31 28 26 21 17 16 15 15
5 18 17 9 12 8 4 23 6 8 6 12 22 12 17 25 30 40 51 56 59 60 61 66 71 72 72 72 73 73 77 81 84 78 72 64 57 51 43 38 35 33 31 26 20 15 13 9 9
Wind_Direction_500mb
233 237 207 217 54 65 223 242 287 132 70 64 103 115 121 66 119 198 143 149 159 173 171 171 169 163 157 149 143 139 135 134 120 88 70 59 51 53 66 64 62 58 57 58 68 85 97 97 96
186 175 176 134 89 77 269 264 187 200 137 108 83 84 54 75 96 143 154 167 166 175 172 172 173 168 163 158 154 147 143 140 132 93 70 54 52 58 62 62 56 54 54 60 65 75 94 102 91
149 167 187 92 109 172 192 216 203 137 147 104 105 77 82 93 125 155 162 164 161 172 172 173 175 174 171 170 167 160 157 150 137 109 74 57 54 58 63 63 63 60 60 61 65 75 91 98 89
174 147 66 84 189 227 204 187 186 142 170 193 129 68 95 159 161 191 154 150 153 169 175 176 176 179 181 178 176 172 167 167 167 132 94 75 69 65 62 62 60 57 59 65 67 72 88 93 78
140 86 61 82 282 271 244 177 170 148 132 144 147 155 125 141 165 175 159 157 167 173 184 179 178 181 188 187 184 182 180 179 181 167 128 83 75 72 69 65 63 62 64 66 70 72 77 78 59
92 79 65 173 259 289 287 178 175 148 149 142 119 128 151 156 159 165 159 163 174 174 186 200 184 193 199 192 191 190 190 191 191 186 159 100 84 81 76 72 69 63 62 67 71 71 69 68 61
117 85 183 181 199 187 220 185 188 164 150 169 148 125 166 168 166 171 168 171 173 175 183 185 192 200 208 208 201 199 197 197 197 194 180 131 97 78 70 69 69 69 65 61 60 62 62 60 57
115 92 131 181 187 225 177 163 171 165 148 151 180 175 187 181 176 179 179 181 183 184 183 195 202 212 216 222 212 210 204 201 198 193 188 178 119 73 58 53 62 71 67 64 66 61 55 47 39
117 66 175 197 151 250 176 144 170 176 156 184 194 192 195 181 183 185 186 188 191 187 189 194 199 215 224 229 218 213 206 205 199 195 200 158 140 111 61 32 54 58 55 52 52 46 39 36 29
97 114 210 201 195 219 190 185 173 169 162 198 193 196 175 183 190 194 194 193 197 199 199 199 207 205 219 228 211 211 208 208 206 209 209 203 196 182 212 111 65 47 28 26 33 27 16 13 13
142 172 199 212 186 206 191 224 195 174 235 212 201 185 180 187 194 201 203 207 207 210 213 212 203 207 211 220 212 205 214 221 218 220 219 209 208 216 180 172 158 100 49 6 7 7 354 353 356
129 234 197 196 202 185 202 214 219 205 226 236 225 202 192 194 200 203 206 209 214 216 216 213 208 207 207 210 219 209 208 221 218 219 222 222 214 210 203 196 194 160 118 348 335 327 336 341 338
158 255 226 209 226 239 224 230 228 235 235 237 212 202 202 202 206 209 213 217 219 220 218 217 215 207 208 213 217 220 215 221 220 225 222 212 217 221 211 205 198 196 190 352 318 329 333 339 352
187 252 278 260 241 234 206 251 209 238 235 226 212 205 207 210 212 214 217 220 222 222 219 218 218 220 217 212 218 218 216 221 224 217 224 232 229 245 218 200 206 215 191 347 283 311 340 9 60
345 328 325 252 249 224 204 280 235 237 217 215 208 208 209 212 216 223 228 227 227 228 227 224 224 228 223 209 213 219 221 225 225 226 229 225 223 219 204 196 204 207 198 242 270 333 38 100 96
42 47 346 282 156 229 160 269 253 227 211 215 217 215 216 219 222 225 228 232 235 233 232 229 224 223 219 212 215 222 224 223 231 222 225 228 212 218 205 203 208 204 212 203 254 43 133 126 118
2 244 218 311 206 122 169 266 270 221 210 226 224 223 224 225 227 228 229 232 235 231 225 222 218 216 212 207 211 214 217 218 226 229 232 224 212 206 189 200 215 205 202 207 226 174 157 138 127
208 220 241 244 207 167 215 265 264 255 228 237 237 232 231 232 236 234 233 231 227 224 222 220 219 215 206 200 207 212 205 198 226 240 211 191 198 184 197 224 234 201 207 197 185 173 149 142 133
150 199 235 247 246 205 235 239 259 246 230 243 244 239 236 236 237 232 231 226 222 220 221 221 219 208 201 204 207 214 221 216 201 201 213 206 203 216 212 218 203 189 212 177 157 150 143 137 140
186 214 248 298 232 191 269 260 242 243 229 239 242 243 241 238 235 228 224 222 221 222 221 219 217 214 207 209 210 209 218 206 213 209 220 212 198 206 198 191 184 180 183 160 146 136 139 137 158
218 213 239 232 315 241 305 270 226 246 233 243 248 252 249 242 235 225 221 221 219 220 219 218 216 215 210 205 207 209 202 225 201 183 197 181 184 183 180 177 176 171 165 157 146 137 131 121 114
223 202 201 240 96 257 10 294 200 228 239 225 245 246 244 243 243 235 224 222 220 219 217 217 214 212 209 212 214 221 207 188 190 186 180 177 179 173 172 174 171 169 161 150 134 115 104 92 89
222 137 177 196 195 327 185 271 106 194 251 254 253 252 252 252 249 241 229 223 218 217 216 213 211 208 207 204 205 196 195 202 189 181 176 180 176 174 174 174 170 166 155 146 129 114 102 86 67
142 85 59 58 69 271 194 174 283 181 217 254 304 271 263 255 249 238 229 219 213 213 212 212 210 207 207 212 213 212 203 200 185 183 178 174 177 176 175 172 169 164 156 142 131 118 103 84 66
116 103 313 331 9 246 329 208 252 309 293 246 284 288 291 258 238 228 221 211 209 209 207 209 207 205 206 203 205 199 207 195 189 185 183 178 179 178 174 172 168 162 153 144 130 115 96 76 60
189 162 160 205 208 274 299 240 251 239 274 277 278 290 287 248 232 228 219 210 208 208 208 206 206 206 209 211 214 214 205 194 188 186 184 180 177 175 171 169 165 159 151 141 127 109 91 74 56
191 196 170 82 84 4 233 290 295 266 279 268 282 278 256 240 230 224 215 208 207 209 210 209 208 208 210 213 211 206 204 194 194 190 185 182 179 177 174 171 168 160 152 143 131 114 90 73 59
162 161 95 78 197 237 273 265 234 282 278 328 272 256 245 225 228 225 213 206 208 211 212 211 215 214 213 213 210 206 199 197 196 190 185 184 182 180 176 173 169 163 156 147 134 116 97 80 61
136 170 166 131 160 192 293 258 215 233 272 299 301 287 237 228 222 217 212 210 211 211 214 214 211 213 214 211 209 205 201 196 191 189 187 185 183 180 175 172 169 164 157 150 146 132 110 87 67
249 191 175 148 207 225 147 268 175 212 273 301 312 311 235 228 222 216 213 215 216 216 216 213 210 212 214 213 209 203 197 193 192 190 188 185 184 179 178 176 171 167 164 160 153 140 121 96 72
Wind_Speed_850mb
8 7 6 5 7 10 2 6 4 5 4 9 18 16 17 11 4 5 30 20 21 27 34 32 29 26 22 19 19 19 20 16 13 15 19 23 26 26 21 20 21 21 20 21 20 21 21 17 17
6 6 6 4 9 6 8 6 11 6 22 30 23 15 12 4 5 17 22 16 19 29 34 32 30 26 22 19 18 17 16 13 10 13 17 23 25 28 26 23 23 23 23 23 22 19 15 12 12
9 7 4 9 7 9 8 8 8 12 35 5 10 15 7 5 16 14 13 23 29 34 32 31 29 26 24 21 19 17 14 14 8 12 15 19 23 26 26 25 24 24 24 25 23 20 16 14 11
7 4 9 8 3 6 8 11 10 16 8 7 23 13 8 7 10 12 18 26 31 29 32 30 28 25 23 21 19 17 15 16 12 10 10 14 17 21 24 25 25 25 26 25 23 22 19 14 11
6 5 8 6 5 5 5 13 23 8 9 13 10 9 7 12 15 17 23 29 31 31 32 31 27 22 19 22 20 18 14 15 14 11 7 11 15 19 21 23 24 24 23 24 23 21 17 14 10
6 6 8 4 6 4 4 15 11 10 11 17 14 17 10 20 22 22 26 31 24 33 31 25 29 19 16 22 22 19 16 16 16 13 7 8 12 15 18 20 21 22 22 21 21 21 18 15 12
11 8 10 8 8 3 8 16 12 13 13 6 24 12 17 27 28 27 28 32 25 28 30 24 23 28 24 20 23 21 18 18 18 16 9 7 9 13 17 19 20 20 19 19 21 19 16 14 12
7 11 7 5 11 9 8 11 11 19 6 23 14 12 13 39 35 34 32 37 35 33 32 28 28 29 29 26 25 23 21 20 20 20 16 10 10 12 17 18 22 23 22 20 21 23 21 14 11
7 9 4 8 11 9 11 7 10 12 22 17 18 12 13 47 41 39 37 44 44 43 40 38 38 34 32 30 27 23 22 21 22 24 19 10 10 7 9 12 19 22 27 28 22 23 25 23 17
8 8 16 9 8 7 10 8 19 12 14 9 15 20 33 51 47 46 46 48 49 48 48 43 37 37 37 34 31 28 26 27 27 28 23 17 12 8 4 7 13 23 24 25 21 23 25 24 21
5 9 10 7 5 4 9 6 14 11 7 24 33 35 49 54 53 50 48 45 46 48 49 46 40 43 39 39 35 35 31 29 30 29 26 22 18 15 12 11 12 7 15 20 17 16 19 20 21
3 2 5 6 7 6 7 5 8 25 19 18 27 39 52 56 57 56 55 54 50 48 47 48 43 46 39 37 37 38 35 36 36 32 30 27 25 22 21 19 15 10 5 14 14 11 17 18 22
3 3 5 7 13 13 10 17 18 23 36 23 28 45 50 56 55 54 52 52 51 50 49 49 48 50 47 40 44 40 40 40 38 35 34 33 31 28 31 27 20 12 8 11 9 14 16 21 14
2 4 10 10 16 12 10 10 12 22 37 32 34 48 52 54 57 59 60 57 54 52 53 56 55 55 52 48 46 49 48 43 41 39 39 35 36 35 43 34 23 17 12 5 11 12 14 9 13
2 7 12 16 12 12 15 15 20 37 31 40 43 46 51 53 55 58 53 54 55 55 56 57 60 62 57 53 50 54 48 47 45 46 43 44 44 41 34 31 23 15 15 5 11 8 5 8 15
5 9 4 7 11 6 17 21 12 24 40 48 51 53 54 57 60 55 55 55 54 53 54 55 57 62 59 57 56 56 54 52 52 51 48 49 48 50 46 33 24 17 15 8 6 2 8 13 16
10 7 10 16 17 6 7 17 5 11 37 53 58 61 62 60 60 61 59 55 53 50 48 48 49 54 58 52 54 53 51 53 54 57 54 53 53 52 32 22 16 20 18 10 6 13 14 18 23
12 9 9 11 4 7 11 25 18 20 28 52 55 63 66 70 73 64 60 57 56 53 50 49 48 52 54 53 54 54 53 46 45 56 57 51 47 37 26 19 23 27 17 14 16 18 21 22 22
8 7 10 8 6 5 16 21 36 36 41 48 58 62 77 82 74 65 61 58 56 55 53 50 47 49 56 57 60 63 63 53 51 43 45 46 39 33 28 27 30 23 20 22 23 21 22 23 19
5 8 13 13 10 12 21 32 22 26 28 57 78 82 86 84 83 73 69 64 59 55 53 51 48 49 53 53 59 59 59 68 50 51 47 42 45 35 35 33 31 28 27 29 28 22 23 23 19
11 14 9 14 12 9 13 25 17 20 48 68 79 93 85 91 88 80 77 72 64 62 58 54 51 49 53 59 59 59 70 64 60 61 53 48 44 43 37 35 33 33 29 27 26 22 19 19 22
12 17 14 10 2 10 6 29 14 15 23 17 63 86 69 76 75 77 82 78 73 65 57 53 53 55 57 59 65 65 67 65 65 60 53 54 48 44 42 38 36 32 27 22 19 18 16 16 16
13 11 13 5 6 7 3 7 3 6 10 22 43 58 62 66 74 79 83 85 73 64 60 56 55 56 55 59 63 78 71 68 69 68 63 52 49 47 44 41 37 30 24 20 17 17 15 14 15
12 11 11 8 4 11 21 15 58 4 11 12 11 25 34 45 57 65 71 82 74 67 61 58 56 60 59 71 75 78 77 65 77 72 68 64 59 56 49 42 35 29 25 21 19 17 16 16 16
8 12 3 6 2 16 7 13 35 19 21 12 18 44 40 40 50 58 67 80 79 72 64 59 60 64 65 77 77 80 72 83 80 76 72 71 68 62 52 42 35 29 24 21 18 16 15 18 18
14 15 11 14 9 9 5 16 12 13 27 27 29 27 25 30 43 52 60 76 79 71 65 61 64 66 70 76 77 79 80 79 80 78 75 71 67 60 50 42 34 30 26 22 19 17 17 19 21
11 11 8 9 4 3 10 15 17 19 20 39 16 22 20 27 40 48 56 70 73 69 64 62 67 71 74 75 74 73 74 77 77 71 71 68 63 57 50 41 34 29 26 23 20 17 17 20 22
12 12 8 5 7 12 11 12 18 17 18 14 12 23 22 26 35 43 54 67 67 62 58 62 64 69 71 73 74 75 76 79 74 76 73 68 62 55 48 42 36 32 29 25 21 16 16 17 19
7 7 4 9 9 8 6 13 14 12 5 14 18 19 24 27 33 41 53 60 60 60 62 63 68 71 72 71 71 74 75 76 80 79 74 66 57 51 45 39 34 31 28 26 21 17 16 15 15
5 18 17 9 12 8 4 23 6 8 6 12 22 12 17 25 30 40 51 56 59 60 61 66 71 72 72 72 73 73 77 81 84 78 72 64 57 51 43 38 35 33 31 26 20 15 13 9 9
Wind_Direction_850mb
233 237 207 217 54 65 223 242 287 132 70 64 103 115 121 66 119 198 143 149 159 173 171 171 169 163 157 149 143 139 135 134 120 88 70 59 51 53 66 64 62 58 57 58 68 85 97 97 96
186 175 176 134 89 77 269 264 187 200 137 108 83 84 54 75 96 143 154 167 166 175 172 172 173 168 163 158 154 147 143 140 132 93 70 54 52 58 62 62 56 54 54 60 65 75 94 102 91
149 167 187 92 109 172 192 216 203 137 147 104 105 77 82 93 125 155 162 164 161 172 172 173 175 174 171 170 167 160 157 150 137 109 74 57 54 58 63 63 63 60 60 61 65 75 91 98 89
174 147 66 84 189 227 204 187 186 142 170 193 129 68 95 159 161 191 154 150 153 169 175 176 176 179 181 178 176 172 167 167 167 132 94 75 69 65 62 62 60 57 59 65 67 72 88 93 78
140 86 61 82 282 271 244 177 170 148 132 144 147 155 125 141 165 175 159 157 167 173 184 179 178 181 188 187 184 182 180 179 181 167 128 83 75 72 69 65 63 62 64 66 70 72 77 78 59
92 79 65 173 259 289 287 178 175 148 149 142 119 128 151 156 159 165 159 163 174 174 186 200 184 193 199 192 191 190 190 191 191 186 159 100 84 81 76 72 69 63 62 67 71 71 69 68 61
117 85 183 181 199 187 220 185 188 164 150 169 148 125 166 168 166 171 168 171 173 175 183 185 192 200 208 208 201 199 197 197 197 194 180 131 97 78 70 69 69 69 65 61 60 62 62 60 57
115 92 131 181 187 225 177 163 171 165 148 151 180 175 187 181 176 179 179 181 183 184 183 195 202 212 216 222 212 210 204 201 198 193 188 178 119 73 58 53 62 71 67 64 66 61 55 47 39
117 66 175 197 151 250 176 144 170 176 156 184 194 192 195 181 183 185 186 188 191 187 189 194 199 215 224 229 218 213 206 205 199 195 200 158 140 111 61 32 54 58 55 52 52 46 39 36 29
97 114 210 201 195 219 190 185 173 169 162 198 193 196 175 183 190 194 194 193 197 199 199 199 207 205 219 228 211 211 208 208 206 209 209 203 196 182 212 111 65 47 28 26 33 27 16 13 13
142 172 199 212 186 206 191 224 195 174 235 212 201 185 180 187 194 201 203 207 207 210 213 212 203 207 211 220 212 205 214 221 218 220 219 209 208 216 180 172 158 100 49 6 7 7 354 353 356
129 234 197 196 202 185 202 214 219 205 226 236 225 202 192 194 200 203 206 209 214 216 216 213 208 207 207 210 219 209 208 221 218 219 222 222 214 210 203 196 194 160 118 348 335 327 336 341 338
158 255 226 209 226 239 224 230 228 235 235 237 212 202 202 202 206 209 213 217 219 220 218 217 215 207 208 213 217 220 215 221 220 225 222 212 217 221 211 205 198 196 190 352 318 329 333 339 352
187 252 278 260 241 234 206 251 209 238 235 226 212 205 207 210 212 214 217 220 222 222 219 218 218 220 217 212 218 218 216 221 224 217 224 232 229 245 218 200 206 215 191 347 283 311 340 9 60
345 328 325 252 249 224 204 280 235 237 217 215 208 208 209 212 216 223 228 227 227 228 227 224 224 228 223 209 213 219 221 225 225 226 229 225 223 219 204 196 204 207 198 242 270 333 38 100 96
42 47 346 282 156 229 160 269 253 227 211 215 217 215 216 219 222 225 228 232 235 233 232 229 224 223 219 212 215 222 224 223 231 222 225 228 212 218 205 203 208 204 212 203 254 43 133 126 118
2 244 218 311 206 122 169 266 270 221 210 226 224 223 224 225 227 228 229 232 235 231 225 222 218 216 212 207 211 214 217 218 226 229 232 224 212 206 189 200 215 205 202 207 226 174 157 138 127
208 220 241 244 207 167 215 265 264 255 228 237 237 232 231 232 236 234 233 231 227 224 222 220 219 215 206 200 207 212 205 198 226 240 211 191 198 184 197 224 234 201 207 197 185 173 149 142 133
150 199 235 247 246 205 235 239 259 246 230 243 244 239 236 236 237 232 231 226 222 220 221 221 219 208 201 204 207 214 221 216 201 201 213 206 203 216 212 218 203 189 212 177 157 150 143 137 140
186 214 248 298 232 191 269 260 242 243 229 239 242 243 241 238 235 228 224 222 221 222 221 219 217 214 207 209 210 209 218 206 213 209 220 212 198 206 198 191 184 180 183 160 146 136 139 137 158
218 213 239 232 315 241 305 270 226 246 233 243 248 252 249 242 235 225 221 221 219 220 219 218 216 215 210 205 207 209 202 225 201 183 197 181 184 183 180 177 176 171 165 157 146 137 131 121 114
223 202 201 240 96 257 10 294 200 228 239 225 245 246 244 243 243 235 224 222 220 219 217 217 214 212 209 212 214 221 207 188 190 186 180 177 179 173 172 174 171 169 161 150 134 115 104 92 89
222 137 177 196 195 327 185 271 106 194 251 254 253 252 252 252 249 241 229 223 218 217 216 213 211 208 207 204 205 196 195 202 189 181 176 180 176 174 174 174 170 166 155 146 129 114 102 86 67
142 85 59 58 69 271 194 174 283 181 217 254 304 271 263 255 249 238 229 219 213 213 212 212 210 207 207 212 213 212 203 200 185 183 178 174 177 176 175 172 169 164 156 142 131 118 103 84 66
116 103 313 331 9 246 329 208 252 309 293 246 284 288 291 258 238 228 221 211 209 209 207 209 207 205 206 203 205 199 207 195 189 185 183 178 179 178 174 172 168 162 153 144 130 115 96 76 60
189 162 160 205 208 274 299 240 251 239 274 277 278 290 287 248 232 228 219 210 208 208 208 206 206 206 209 211 214 214 205 194 188 186 184 180 177 175 171 169 165 159 151 141 127 109 91 74 56
191 196 170 82 84 4 233 290 295 266 279 268 282 278 256 240 230 224 215 208 207 209 210 209 208 208 210 213 211 206 204 194 194 190 185 182 179 177 174 171 168 160 152 143 131 114 90 73 59
162 161 95 78 197 237 273 265 234 282 278 328 272 256 245 225 228 225 213 206 208 211 212 211 215 214 213 213 210 206 199 197 196 190 185 184 182 180 176 173 169 163 156 147 134 116 97 80 61
136 170 166 131 160 192 293 258 215 233 272 299 301 287 237 228 222 217 212 210 211 211 214 214 211 213 214 211 209 205 201 196 191 189 187 185 183 180 175 172 169 164 157 150 146 132 110 87 67
249 191 175 148 207 225 147 268 175 212 273 301 312 311 235 228 222 216 213 215 216 216 216 213 210 212 214 213 209 203 197 193 192 190 188 185 184 179 178 176 171 167 164 160 153 140 121 96 72